Weather in Angeles

Philippines     15°08′51″N   120°33′34″E
temp.,
°C
wind,
m/s
gust,
m/s
humid.,
%
clouds,
%
prec.,
mm/h
press.,
hPa
HPBL,
m
27 october, wed
wed2723:00+23nw0082100 0.0 101311
02:00+23wsw1184100 0.0 101211
05:00+23wnw118584 0.0 101212
08:00+25ese118095 0.0 1014318
11:00+28ese1168100 0.0 10131018
14:00+30ene226192 0.1 10101373
17:00+26se358074 0.5 1011110
20:00+24ssw228831 0.8 101324
28 october, thu
thu2823:00+23ssw228989 0.0 101316
02:00+23sw22899 0.0 101218
05:00+22nnw11905 0.0 101211
08:00+25n22826 0.0 1014327
11:00+28ne336928 0.0 10141076
14:00+29ne236425 0.0 10111215
17:00+25se35857 2.6 1012146
20:00+23s229248 4.5 101525
29 october, fri
fri2923:00+22sw119117 0.0 101413
02:00+22wsw119012 0.0 101311
05:00+22nw11905 0.0 101311
08:00+25n22815 0.0 1015356
11:00+28ne23685 0.0 1014987
14:00+29ene236318 0.0 10121155
17:00+26sse35815 0.1 1013153
20:00+23s22865 0.1 101515
30 october, sat
sat3023:00+22sw11885 0.0 101511
02:00+22w11895 0.0 101311
05:00+22nw11895 0.0 101411
08:00+25n12785 0.0 1015304
11:00+28ene226812 0.0 1014959
14:00+29ne226337 0.1 10121265
17:00+26se46805 0.0 1012174
20:00+23ssw228626 0.0 101515
31 october, sun
sun3123:00+24ssw118336 0.0 101514
02:00+22sw11885 0.0 101311
05:00+22sw11905 0.0 101412
08:00+25se01807 0.0 1015379
11:00+28ene33687 0.0 10141110
14:00+29ene23608 0.0 10121332
17:00+26sse34772 0.0 1012102
20:00+23ssw22855 0.0 101522